GW4177 Weather Reports


time (UTC)temp
C
wind
direction
speed
KPH
gust
KPH
rain 1hr
cm
rain 24hr
cm
rain mn
cm
humidity
%
barometer
mb
20260505140335 16 26 0.0 0.0 0.00 0.99 0.99 93 1008.3
20260505130258 15 343 0.0 0.0 0.00 0.99 0.99 97 1008.2
20260505124748 15 297 0.0 0.0 0.00 0.99 0.99 98 1008.0
20260505124245 15 297 0.0 0.0 0.00 0.99 0.99 98 1008.2
20260505123741 15 297 0.0 0.0 0.00 0.99 0.99 98 1007.8
20260505123238 15 297 0.0 0.0 0.00 0.99 0.99 98 1007.9
20260505122734 15 297 0.0 0.0 0.00 0.99 0.99 98 1007.7
20260505122232 15 297 0.0 0.0 0.00 0.99 0.99 98 1008.1
20260505121728 15 297 0.0 0.0 0.00 0.99 0.99 98 1007.9
20260505121225 15 297 0.0 0.0 0.00 0.99 0.99 98 1007.9
20260505120721 15 297 0.0 0.0 0.00 0.99 0.99 98 1007.6
20260505120217 15 297 0.0 0.0 0.00 0.99 0.99 98 1007.8
20260505115715 15 297 0.0 0.0 0.00 0.99 0.99 98 1007.7
20260505115214 15 297 0.0 0.0 0.00 0.99 0.99 98 1007.6
20260505114711 15 297 0.0 0.0 0.00 0.99 0.99 97 1007.8
20260505114207 15 297 0.0 0.0 0.00 0.99 0.99 97 1007.7
20260505113703 15 297 0.0 0.0 0.00 0.99 0.99 97 1007.6
20260505113200 15 295 1.6 1.6 0.00 0.99 0.99 98 1007.6
20260505112656 15 306 0.0 0.0 0.00 0.99 0.99 98 1007.5
20260505112155 15 306 0.0 0.0 0.00 0.99 0.99 98 1007.3
20260505111654 15 305 0.0 0.0 0.00 0.99 0.99 98 1007.1
20260505111150 15 274 0.0 0.0 0.00 0.99 0.99 98 1007.2
20260505110646 15 234 0.0 0.0 0.00 0.99 0.99 98 1007.4
20260505110144 15 315 3.2 4.8 0.00 0.99 0.99 98 1007.3
20260505102120 15 246 0.0 0.0 0.00 0.99 0.99 98 1006.8
20260505101618 15 224 0.0 0.0 0.00 0.99 0.99 98 1006.9
20260505101114 15 224 0.0 0.0 0.13 0.99 0.99 98 1006.8
20260505100610 15 178 0.0 0.0 0.13 0.99 0.99 98 1006.7
20260505100107 15 176 0.0 0.0 0.00 0.97 0.97 98 1006.7
20260505095603 15 174 0.0 0.0 0.00 0.97 0.97 98 1006.6
20260505095100 15 204 0.0 0.0 0.00 0.97 0.97 98 1006.9
20260505094557 15 237 0.0 0.0 0.18 0.97 0.97 98 1006.3
20260505094053 15 174 3.2 3.2 0.18 0.97 0.97 98 1006.2
20260505093549 15 182 3.2 4.8 0.00 0.94 0.94 98 1006.2
20260505093047 15 130 3.2 4.8 0.00 0.94 0.94 98 1006.3
20260505092544 15 145 4.8 6.4 0.18 0.94 0.94 98 1006.9
20260505092043 15 172 0.0 0.0 0.30 0.94 0.94 98 1007.1
20260505091539 15 172 0.0 3.2 0.30 0.91 0.91 98 1007.8
20260505091037 15 173 0.0 0.0 0.18 0.89 0.89 98 1008.0
20260505090535 15 188 0.0 0.0 0.13 0.86 0.86 98 1007.9
20260505090033 15 230 0.0 0.0 0.30 0.86 0.86 98 1008.1
20260505085530 15 230 0.0 0.0 0.18 0.84 0.84 97 1007.9
20260505085028 15 230 0.0 0.0 0.13 0.81 0.81 97 1007.8
20260505084526 15 151 0.0 0.0 0.30 0.81 0.81 97 1007.3
20260505084024 15 151 0.0 0.0 0.61 0.79 0.79 97 1007.5
20260505083521 15 157 0.0 0.0 0.61 0.74 0.74 97 1007.8
20260505083017 15 157 0.0 0.0 0.66 0.69 0.69 97 1008.0
20260505082513 15 157 0.0 0.0 0.79 0.64 0.64 97 1008.2
20260505082010 15 161 0.0 0.0 0.61 0.58 0.58 97 1008.1
20260505081506 15 161 0.0 0.0 0.48 0.51 0.51 96 1008.3
20260505081003 15 161 0.0 0.0 0.61 0.48 0.48 96 1008.5
20260505080500 15 161 0.0 0.0 0.61 0.43 0.43 96 1008.4
20260505075955 15 161 0.0 0.0 0.48 0.36 0.36 96 1008.5
20260505075452 15 161 0.0 0.0 0.61 0.33 0.33 95 1008.7
20260505074949 15 161 0.0 0.0 0.48 0.28 0.28 95 1008.6
20260505074447 16 161 0.0 0.0 0.30 0.23 0.23 94 1008.3
20260505073944 16 161 0.0 0.0 0.30 0.20 0.20 93 1008.1
20260505073441 16 175 0.0 0.0 0.61 0.18 0.18 91 1008.4
20260505072938 16 177 0.0 0.0 0.61 0.13 0.13 89 1008.3
20260505072434 17 176 0.0 0.0 0.30 0.05 0.05 86 1008.2
20260505071931 17 168 0.0 0.0 0.18 0.03 0.03 83 1008.0
20260505071427 17 172 0.0 0.0 0.00 0.00 0.00 79 1007.8
20260505070925 18 200 0.0 1.6 0.00 0.00 0.00 76 1007.5
20260505070421 18 182 3.2 9.7 0.00 0.00 0.00 74 1007.9
20260505065917 18 228 0.0 0.0 0.00 0.00 0.00 72 1007.7
20260505065414 18 167 0.0 0.0 0.00 0.00 0.00 72 1007.6
20260505064910 18 175 0.0 1.6 0.00 0.00 0.00 71 1007.5
20260505064408 18 161 1.6 1.6 0.00 0.00 0.00 71 1007.3
20260505063906 18 184 1.6 1.6 0.00 0.00 0.00 71 1007.2
20260505063402 18 154 0.0 0.0 0.00 0.00 0.00 70 1007.5
20260505062859 18 158 0.0 1.6 0.00 0.00 0.00 70 1007.6
20260505062356 18 168 3.2 4.8 0.00 0.00 0.00 71 1007.5
20260505061852 18 157 0.0 0.0 0.00 0.00 0.00 71 1007.7
20260505061351 18 167 3.2 3.2 0.00 0.00 0.00 70 1007.9
20260505060848 18 168 1.6 4.8 0.00 0.00 0.00 70 1007.8
20260505060345 18 170 3.2 4.8 0.00 0.00 0.00 70 1007.6
20260505055841 18 173 3.2 4.8 0.00 0.00 0.00 70 1007.9
20260505055337 18 166 3.2 3.2 0.00 0.00 0.00 71 1008.0
20260505054834 18 171 1.6 4.8 0.00 0.00 0.00 70 1007.8
20260505054331 18 153 3.2 4.8 0.00 0.00 0.00 70 1007.8
20260505053830 18 179 1.6 3.2 0.00 0.00 0.00 70 1007.9
20260505053326 18 167 1.6 4.8 0.00 0.00 0.00 70 1007.9
20260505052823 18 160 3.2 3.2 0.00 0.00 0.00 70 1007.6
20260505052320 18 178 1.6 3.2 0.00 0.00 0.00 70 1007.6
20260505051817 18 180 0.0 0.0 0.00 0.00 0.00 70 1007.6
20260505051314 18 174 1.6 3.2 0.00 0.00 0.00 70 1007.8
20260505050812 18 145 3.2 3.2 0.00 0.00 0.00 70 1007.8
20260505050311 18 173 1.6 3.2 0.00 0.00 0.00 70 1007.9
20260505041740 18 167 0.0 0.0 0.00 0.00 0.00 71 1008.2
20260505041237 18 167 0.0 0.0 0.00 0.00 0.00 70 1008.4
20260505040735 18 167 0.0 0.0 0.00 0.00 0.00 70 1008.5
20260505040232 18 167 0.0 0.0 0.00 0.00 0.00 69 1008.4
20260505035729 19 167 0.0 3.2 0.00 0.00 0.00 68 1008.5
20260505035225 19 164 0.0 1.6 0.00 0.00 0.00 68 1008.5
20260505034722 19 165 0.0 0.0 0.00 0.00 0.00 68 1008.6
20260505034218 19 165 0.0 0.0 0.00 0.00 0.00 67 1008.7
20260505033715 19 165 0.0 0.0 0.00 0.00 0.00 68 1008.6
20260505033213 19 164 0.0 0.0 0.00 0.00 0.00 69 1008.6
20260505032711 19 164 0.0 1.6 0.00 0.00 0.00 68 1008.7
20260505032206 19 164 0.0 0.0 0.00 0.00 0.00 68 1008.7
20260505031704 19 164 0.0 1.6 0.00 0.00 0.00 68 1008.6
20260505031201 19 164 0.0 0.0 0.00 0.00 0.00 68 1008.6
20260505030657 20 164 0.0 0.0 0.00 0.00 0.00 67 1008.7
20260505030153 20 164 0.0 0.0 0.00 0.00 0.00 66 1008.6
20260505025649 20 164 0.0 0.0 0.00 0.00 0.00 66 1008.7
20260505025148 20 164 0.0 0.0 0.00 0.00 0.00 65 1008.7
20260505024645 20 164 0.0 0.0 0.00 0.00 0.00 64 1008.6
20260505024142 20 164 0.0 0.0 0.00 0.00 0.00 65 1008.6
20260505023640 20 164 0.0 0.0 0.00 0.00 0.00 66 1008.5
20260505023137 20 164 0.0 0.0 0.00 0.00 0.00 65 1008.6
20260505022634 20 164 0.0 0.0 0.00 0.00 0.00 64 1008.7
20260505022131 20 164 0.0 0.0 0.00 0.00 0.00 63 1008.2
20260505021628 21 164 0.0 0.0 0.00 0.00 0.00 62 1008.1
20260505021124 21 164 0.0 1.6 0.00 0.00 0.00 61 1008.1
20260505020614 21 167 1.6 1.6 0.00 0.00 0.00 60 1007.8
20260505020111 21 161 0.0 0.0 0.00 0.00 0.00 60 1008.0
20260505015608 21 160 3.2 3.2 0.00 0.00 0.00 60 1007.8
20260505015105 21 169 1.6 1.6 0.00 0.00 0.00 60 1007.8
20260505014601 21 170 3.2 4.8 0.00 0.00 0.00 59 1007.7
20260505014058 21 150 3.2 12.9 0.00 0.00 0.00 59 1007.8
20260505013555 22 167 4.8 6.4 0.00 0.00 0.00 58 1007.5
20260505013053 22 169 0.0 3.2 0.00 0.00 0.00 59 1007.3
20260505012551 22 155 1.6 4.8 0.00 0.00 0.00 59 1007.4
20260505012048 22 160 3.2 3.2 0.00 0.00 0.00 59 1007.4
20260505011543 22 160 1.6 3.2 0.00 0.00 0.00 59 1007.3
20260505011041 22 165 3.2 4.8 0.00 0.00 0.00 58 1007.1
20260505010536 22 173 1.6 3.2 0.00 0.00 0.00 58 1007.1
20260505010032 22 189 0.0 0.0 0.00 0.00 0.00 58 1007.0
20260505005529 22 204 0.0 4.8 0.00 0.00 0.00 57 1007.1
20260505005027 22 189 3.2 9.7 0.00 0.00 0.00 57 1006.9
20260505004523 22 195 1.6 3.2 0.00 0.00 0.00 57 1006.8
20260505004020 22 174 1.6 4.8 0.00 0.00 0.00 57 1006.7
20260505003517 22 168 3.2 4.8 0.00 0.00 0.00 57 1006.5
20260505003014 22 155 3.2 4.8 0.00 0.00 0.00 56 1006.5
20260505002509 23 168 3.2 4.8 0.00 0.00 0.00 56 1006.7
20260505002008 23 154 1.6 3.2 0.00 0.00 0.00 56 1006.5
20260505001505 23 168 1.6 3.2 0.00 0.00 0.00 55 1006.6
20260505001002 23 163 3.2 4.8 0.00 0.00 0.00 54 1006.5
20260505000500 23 184 0.0 3.2 0.00 0.00 0.00 54 1006.7
20260504235956 23 177 3.2 3.2 0.00 0.00 0.00 52 1006.7
20260504235454 23 172 1.6 6.4 0.00 0.00 0.00 52 1006.5
20260504234950 23 167 3.2 4.8 0.00 0.00 0.00 51 1006.5
20260504234447 23 130 1.6 6.4 0.00 0.00 0.00 51 1006.5
20260504233943 24 198 1.6 6.4 0.00 0.00 0.00 51 1006.5
20260504233439 24 202 6.4 6.4 0.00 0.00 0.00 49 1006.5
20260504232937 24 167 1.6 9.7 0.00 0.00 0.00 49 1006.4
20260504232434 25 159 4.8 14.5 0.00 0.00 0.00 50 1006.6
20260504231931 25 190 6.4 11.3 0.00 0.00 0.00 48 1006.6
20260504231427 25 153 6.4 9.7 0.00 0.00 0.00 48 1006.5
20260504230923 25 205 3.2 11.3 0.00 0.00 0.00 48 1006.7
20260504230420 25 172 6.4 12.9 0.00 0.00 0.00 47 1006.8
20260504225919 25 187 3.2 9.7 0.00 0.00 0.00 46 1006.7
20260504225416 26 177 4.8 4.8 0.00 0.00 0.00 45 1006.6
20260504224913 26 178 4.8 12.9 0.00 0.00 0.00 45 1006.8
20260504224409 26 171 4.8 6.4 0.00 0.00 0.00 45 1006.7
20260504223907 26 188 3.2 9.7 0.00 0.00 0.00 45 1006.9
20260504223402 26 163 4.8 6.4 0.00 0.00 0.00 45 1006.9
20260504222859 26 134 9.7 12.9 0.00 0.00 0.00 45 1006.9
20260504222355 26 117 1.6 11.3 0.00 0.00 0.00 47 1006.9
20260504221854 26 148 1.6 4.8 0.00 0.00 0.00 45 1006.7
20260504221350 26 195 1.6 14.5 0.00 0.00 0.00 45 1006.9
20260504220847 26 167 6.4 12.9 0.00 0.00 0.00 44 1006.6
20260504220344 26 172 6.4 17.7 0.00 0.00 0.00 44 1006.7
20260504215841 26 162 6.4 14.5 0.00 0.00 0.00 44 1006.8
20260504215337 26 179 6.4 6.4 0.00 0.00 0.00 44 1006.7
20260504214833 26 169 9.7 17.7 0.00 0.00 0.00 44 1006.8
20260504214331 26 157 9.7 14.5 0.00 0.00 0.00 44 1006.8
20260504213827 26 254 6.4 12.9 0.00 0.00 0.00 43 1006.9
20260504213323 26 137 6.4 16.1 0.00 0.00 0.00 43 1006.8
20260504212821 27 111 9.7 12.9 0.00 0.00 0.00 43 1007.1
20260504212317 26 97 6.4 6.4 0.00 0.00 0.00 43 1007.1
20260504211815 26 276 1.6 11.3 0.00 0.00 0.00 43 1007.1
20260504211310 26 141 6.4 6.4 0.00 0.00 0.00 44 1007.3
20260504210808 26 193 6.4 14.5 0.00 0.00 0.00 43 1007.1
20260504210305 26 147 6.4 9.7 0.00 0.00 0.00 42 1007.1
20260504205802 26 189 1.6 4.8 0.00 0.00 0.00 43 1007.5
20260504205300 26 106 4.8 16.1 0.00 0.00 0.00 43 1007.4
20260504204758 26 180 6.4 17.7 0.00 0.00 0.00 43 1007.5
20260504204256 26 205 1.6 14.5 0.00 0.00 0.00 44 1007.6
20260504203755 26 140 6.4 16.1 0.00 0.00 0.00 43 1007.7
20260504203253 26 172 9.7 12.9 0.00 0.00 0.00 42 1007.7
20260504202752 26 188 3.2 17.7 0.00 0.00 0.00 43 1007.8
20260504202250 26 204 14.5 20.9 0.00 0.00 0.00 42 1007.8
20260504201747 26 182 11.3 16.1 0.00 0.00 0.00 44 1007.7
20260504201244 26 321 3.2 9.7 0.00 0.00 0.00 43 1007.8
20260504200742 26 199 11.3 17.7 0.00 0.00 0.00 43 1008.1
20260504200237 27 180 3.2 9.7 0.00 0.00 0.00 44 1007.9
20260504195734 26 158 3.2 14.5 0.00 0.00 0.00 45 1007.9
20260504195230 26 150 4.8 11.3 0.00 0.00 0.00 45 1007.8
20260504194727 26 202 3.2 16.1 0.00 0.00 0.00 45 1008.1
20260504194223 26 329 6.4 6.4 0.00 0.00 0.00 48 1008.0
20260504193720 26 195 3.2 9.7 0.00 0.00 0.00 46 1008.4
20260504193218 26 151 8.0 11.3 0.00 0.00 0.00 45 1008.2
20260504192716 26 239 1.6 4.8 0.00 0.00 0.00 48 1008.4
20260504192213 26 133 8.0 27.4 0.00 0.00 0.00 46 1008.5
20260504191712 26 173 3.2 14.5 0.00 0.00 0.00 45 1008.4
20260504191208 26 182 6.4 16.1 0.00 0.00 0.00 46 1008.5
20260504190703 26 130 1.6 6.4 0.00 0.00 0.00 45 1008.5
20260504190200 26 210 4.8 11.3 0.00 0.00 0.00 45 1008.5
20260504185657 26 198 1.6 4.8 0.00 0.00 0.00 47 1008.6
20260504185153 25 129 8.0 16.1 0.00 0.00 0.00 46 1008.5
20260504184649 25 233 8.0 9.7 0.00 0.00 0.00 45 1008.6
20260504184144 25 116 9.7 16.1 0.00 0.00 0.00 46 1008.5
20260504183642 25 27 1.6 6.4 0.00 0.00 0.00 47 1008.7
20260504183139 25 148 4.8 9.7 0.00 0.00 0.00 46 1008.7
20260504182637 25 146 4.8 16.1 0.00 0.00 0.00 47 1008.7
20260504182134 25 163 16.1 25.7 0.00 0.00 0.00 47 1008.8
20260504181632 25 160 6.4 12.9 0.00 0.00 0.00 47 1009.0
20260504181129 25 168 9.7 20.9 0.00 0.00 0.00 46 1009.0
20260504180628 25 132 12.9 17.7 0.00 0.00 0.00 46 1009.0
20260504180126 25 199 8.0 17.7 0.00 0.00 0.00 47 1008.9
20260504175623 25 93 4.8 17.7 0.00 0.00 0.00 46 1009.1
20260504175120 25 125 12.9 20.9 0.00 0.00 0.00 47 1008.9
20260504174618 25 173 4.8 14.5 0.00 0.00 0.00 46 1008.9
20260504174114 24 183 9.7 16.1 0.00 0.00 0.00 47 1009.0
20260504173611 24 188 8.0 20.9 0.00 0.00 0.00 47 1009.3
20260504173109 24 207 11.3 22.5 0.00 0.00 0.00 47 1009.3
20260504172605 24 143 8.0 16.1 0.00 0.00 0.00 47 1009.4
20260504172102 24 155 6.4 17.7 0.00 0.00 0.00 48 1009.4
20260504171558 24 170 11.3 16.1 0.00 0.00 0.00 47 1009.5
20260504171055 24 160 6.4 16.1 0.00 0.00 0.00 48 1009.4
20260504170551 24 143 6.4 20.9 0.00 0.00 0.00 49 1009.1
20260504150929 22 214 3.2 14.5 0.00 0.00 0.00 51 1010.5
20260504150426 22 199 4.8 9.7 0.00 0.00 0.00 52 1010.4